Time,TemperatureF,DewpointF,PressureIn,WindDirection,WindDirectionDegrees,WindSpeedMPH,WindSpeedGustMPH,Humidity,HourlyPrecipIn,Conditions,Clouds,dailyrainin,SolarRadiationWatts/m^2,SoftwareType,DateUTC
2013-01-01 00:00:00,34.7,28.5,30.03,West,271,10.0,10.0,78,0.00,,,0.00,0,Wunderground v.1.15,2013-01-01 05:00:00,
2013-01-01 00:03:00,34.7,28.5,30.03,West,279,9.0,10.0,78,0.00,,,0.00,0,Wunderground v.1.15,2013-01-01 05:03:00,
2013-01-01 00:05:00,34.7,28.9,30.03,WSW,252,9.0,12.0,79,0.00,,,0.00,0,Wunderground v.1.15,2013-01-01 05:05:00,
2013-01-01 00:06:00,34.7,28.9,30.03,NNW,338,9.0,12.0,79,0.00,,,0.00,0,Wunderground v.1.15,2013-01-01 05:06:00,
2013-01-01 00:11:00,34.6,28.4,30.03,SW,236,9.0,10.0,78,0.00,,,0.00,0,Wunderground v.1.15,2013-01-01 05:11:00,
2013-01-01 00:17:00,34.7,28.5,30.03,WNW,282,10.0,16.0,78,0.00,,,0.00,0,Wunderground v.1.15,2013-01-01 05:17:00,
2013-01-01 00:22:00,34.9,28.4,30.03,WNW,284,10.0,10.0,77,0.00,,,0.00,0,Wunderground v.1.15,2013-01-01 05:22:00,
2013-01-01 00:27:00,35.0,28.5,30.02,WNW,289,10.0,21.0,77,0.00,,,0.00,0,Wunderground v.1.15,2013-01-01 05:27:00,
2013-01-01 00:32:00,35.2,28.4,30.03,West,260,11.0,19.0,76,0.00,,,0.00,0,Wunderground v.1.15,2013-01-01 05:32:00,
2013-01-01 00:38:00,35.2,28.7,30.03,WNW,298,10.0,19.0,77,0.00,,,0.00,0,Wunderground v.1.15,2013-01-01 05:38:00,
2013-01-01 00:43:00,35.2,28.4,30.03,WNW,296,9.0,11.0,76,0.00,,,0.00,0,Wunderground v.1.15,2013-01-01 05:43:00,
2013-01-01 00:49:00,35.2,28.4,30.03,SW,217,8.0,20.0,76,0.00,,,0.00,0,Wunderground v.1.15,2013-01-01 05:49:00,
2013-01-01 00:54:00,35.3,28.8,30.03,WNW,294,11.0,23.0,77,0.00,,,0.00,0,Wunderground v.1.15,2013-01-01 05:54:00,
2013-01-01 00:59:00,35.4,28.9,30.03,West,269,12.0,23.0,77,0.00,,,0.00,0,Wunderground v.1.15,2013-01-01 05:59:00,
2013-01-01 01:05:00,35.5,28.7,30.02,WNW,284,11.0,19.0,76,0.00,,,0.00,0,Wunderground v.1.15,2013-01-01 06:05:00,
2013-01-01 01:11:00,35.4,28.9,30.03,North,9,10.0,17.0,77,0.00,,,0.00,0,Wunderground v.1.15,2013-01-01 06:11:00,
2013-01-01 01:16:00,35.4,28.9,30.02,West,260,10.0,18.0,77,0.00,,,0.00,0,Wunderground v.1.15,2013-01-01 06:16:00,
2013-01-01 01:21:00,35.4,28.9,30.02,West,262,11.0,17.0,77,0.00,,,0.00,0,Wunderground v.1.15,2013-01-01 06:21:00,
2013-01-01 01:27:00,35.4,29.2,30.02,WSW,244,12.0,30.0,78,0.00,,,0.00,0,Wunderground v.1.15,2013-01-01 06:27:00,
2013-01-01 01:32:00,35.4,29.2,30.03,West,263,14.0,19.0,78,0.00,,,0.00,0,Wunderground v.1.15,2013-01-01 06:32:00,
2013-01-01 01:37:00,35.4,28.9,30.03,West,277,14.0,28.0,77,0.00,,,0.00,0,Wunderground v.1.15,2013-01-01 06:37:00,
2013-01-01 01:43:00,35.4,29.2,30.02,West,273,15.0,17.0,78,0.00,,,0.00,0,Wunderground v.1.15,2013-01-01 06:43:00,
2013-01-01 01:48:00,35.3,28.8,30.01,WSW,246,15.0,21.0,77,0.00,,,0.00,0,Wunderground v.1.15,2013-01-01 06:48:00,
2013-01-01 01:54:00,35.3,28.8,30.01,NW,307,13.0,14.0,77,0.00,,,0.00,0,Wunderground v.1.15,2013-01-01 06:54:00,
2013-01-01 01:59:00,35.4,28.9,30.01,WNW,293,12.0,22.0,77,0.00,,,0.00,0,Wunderground v.1.15,2013-01-01 06:59:00,
2013-01-01 02:05:00,35.4,28.6,30.01,West,275,14.0,30.0,76,0.00,,,0.00,0,Wunderground v.1.15,2013-01-01 07:05:00,
2013-01-01 02:10:00,35.4,28.6,30.00,West,281,18.0,18.0,76,0.00,,,0.00,0,Wunderground v.1.15,2013-01-01 07:10:00,
2013-01-01 02:16:00,35.3,28.8,30.01,WNW,284,15.0,26.0,77,0.00,,,0.00,0,Wunderground v.1.15,2013-01-01 07:16:00,
2013-01-01 02:21:00,35.2,29.0,30.01,West,275,12.0,18.0,78,0.00,,,0.00,0,Wunderground v.1.15,2013-01-01 07:21:00,
2013-01-01 02:26:00,35.2,29.0,30.02,West,265,13.0,18.0,78,0.00,,,0.00,0,Wunderground v.1.15,2013-01-01 07:26:00,
2013-01-01 02:32:00,35.2,29.0,30.01,WNW,284,16.0,20.0,78,0.00,,,0.00,0,Wunderground v.1.15,2013-01-01 07:32:00,
2013-01-01 02:37:00,35.1,28.9,30.01,WNW,283,14.0,22.0,78,0.00,,,0.00,0,Wunderground v.1.15,2013-01-01 07:37:00,
2013-01-01 02:42:00,34.9,28.7,30.02,WNW,299,14.0,15.0,78,0.00,,,0.00,0,Wunderground v.1.15,2013-01-01 07:42:00,
2013-01-01 02:48:00,34.7,28.9,30.02,WSW,253,13.0,15.0,79,0.00,,,0.00,0,Wunderground v.1.15,2013-01-01 07:48:00,
2013-01-01 02:53:00,34.6,28.4,30.02,West,274,14.0,23.0,78,0.00,,,0.00,0,Wunderground v.1.15,2013-01-01 07:53:00,
2013-01-01 02:58:00,34.7,28.5,30.01,SW,236,15.0,27.0,78,0.00,,,0.00,0,Wunderground v.1.15,2013-01-01 07:58:00,
2013-01-01 03:04:00,34.6,28.4,30.01,WNW,294,16.0,19.0,78,0.00,,,0.00,0,Wunderground v.1.15,2013-01-01 08:04:00,
2013-01-01 03:10:00,34.6,28.4,30.01,SSW,213,14.0,14.0,78,0.00,,,0.00,0,Wunderground v.1.15,2013-01-01 08:10:00,
2013-01-01 03:15:00,34.5,28.3,30.01,West,271,15.0,34.0,78,0.00,,,0.00,0,Wunderground v.1.15,2013-01-01 08:15:00,
2013-01-01 03:20:00,34.5,28.7,30.01,WSW,251,17.0,19.0,79,0.00,,,0.00,0,Wunderground v.1.15,2013-01-01 08:20:00,
2013-01-01 03:26:00,34.2,28.7,30.01,West,279,16.0,21.0,80,0.00,,,0.00,0,Wunderground v.1.15,2013-01-01 08:26:00,
2013-01-01 03:31:00,34.0,28.8,30.01,WNW,295,15.0,22.0,81,0.00,,,0.00,0,Wunderground v.1.15,2013-01-01 08:31:00,
2013-01-01 03:36:00,33.8,28.9,30.01,WSW,244,17.0,36.0,82,0.00,,,0.00,0,Wunderground v.1.15,2013-01-01 08:36:00,
2013-01-01 03:42:00,33.6,28.7,30.01,SW,223,15.0,17.0,82,0.00,,,0.00,0,Wunderground v.1.15,2013-01-01 08:42:00,
2013-01-01 03:47:00,33.4,28.8,30.02,West,259,10.0,17.0,83,0.00,,,0.00,0,Wunderground v.1.15,2013-01-01 08:47:00,
2013-01-01 03:53:00,33.3,29.0,30.00,WSW,246,10.0,11.0,84,0.00,,,0.00,0,Wunderground v.1.15,2013-01-01 08:53:00,
2013-01-01 03:58:00,33.3,28.7,30.00,SW,225,10.0,11.0,83,0.00,,,0.00,0,Wunderground v.1.15,2013-01-01 08:58:00,
2013-01-01 04:04:00,33.3,28.7,30.00,NW,305,9.0,20.0,83,0.00,,,0.00,0,Wunderground v.1.15,2013-01-01 09:04:00,
2013-01-01 04:10:00,33.4,28.8,30.01,SW,235,10.0,10.0,83,0.00,,,0.00,0,Wunderground v.1.15,2013-01-01 09:10:00,
2013-01-01 04:15:00,33.4,28.8,30.00,WSW,254,10.0,22.0,83,0.00,,,0.00,0,Wunderground v.1.15,2013-01-01 09:15:00,
2013-01-01 04:20:00,33.5,28.9,30.00,WNW,299,11.0,12.0,83,0.00,,,0.00,0,Wunderground v.1.15,2013-01-01 09:20:00,
2013-01-01 04:25:00,33.6,29.0,30.00,SW,217,9.0,12.0,83,0.00,,,0.00,0,Wunderground v.1.15,2013-01-01 09:25:00,
2013-01-01 04:31:00,33.7,29.1,30.00,West,276,9.0,11.0,83,0.00,,,0.00,0,Wunderground v.1.15,2013-01-01 09:31:00,
2013-01-01 04:36:00,33.8,28.9,30.01,West,268,9.0,13.0,82,0.00,,,0.00,0,Wunderground v.1.15,2013-01-01 09:36:00,
2013-01-01 04:41:00,33.9,29.3,30.01,West,279,11.0,20.0,83,0.00,,,0.00,0,Wunderground v.1.15,2013-01-01 09:41:00,
2013-01-01 04:47:00,34.0,29.1,30.02,West,279,12.0,20.0,82,0.00,,,0.00,0,Wunderground v.1.15,2013-01-01 09:47:00,
2013-01-01 04:52:00,34.1,29.2,30.02,West,272,11.0,13.0,82,0.00,,,0.00,0,Wunderground v.1.15,2013-01-01 09:52:00,
2013-01-01 04:57:00,34.2,29.0,30.01,SW,220,11.0,16.0,81,0.00,,,0.00,0,Wunderground v.1.15,2013-01-01 09:57:00,
2013-01-01 05:03:00,34.2,29.3,30.00,West,259,11.0,16.0,82,0.00,,,0.00,0,Wunderground v.1.15,2013-01-01 10:03:00,
2013-01-01 05:09:00,34.0,29.1,30.00,SW,229,11.0,17.0,82,0.00,,,0.00,0,Wunderground v.1.15,2013-01-01 10:09:00,
2013-01-01 05:15:00,34.0,29.1,30.00,WNW,287,9.0,11.0,82,0.00,,,0.00,0,Wunderground v.1.15,2013-01-01 10:15:00,
2013-01-01 05:20:00,33.9,29.0,30.00,WSW,257,9.0,13.0,82,0.00,,,0.00,0,Wunderground v.1.15,2013-01-01 10:20:00,
2013-01-01 05:26:00,33.8,28.9,30.00,North,360,13.0,14.0,82,0.00,,,0.00,0,Wunderground v.1.15,2013-01-01 10:26:00,
2013-01-01 05:31:00,33.8,28.9,30.00,West,267,11.0,15.0,82,0.00,,,0.00,0,Wunderground v.1.15,2013-01-01 10:31:00,
2013-01-01 05:36:00,33.8,28.9,30.00,WSW,246,11.0,19.0,82,0.00,,,0.00,0,Wunderground v.1.15,2013-01-01 10:36:00,
2013-01-01 05:42:00,33.7,28.8,29.99,SW,215,11.0,16.0,82,0.00,,,0.00,0,Wunderground v.1.15,2013-01-01 10:42:00,
2013-01-01 05:48:00,33.6,29.0,30.00,WSW,258,10.0,18.0,83,0.00,,,0.00,0,Wunderground v.1.15,2013-01-01 10:48:00,
2013-01-01 05:54:00,33.5,28.9,30.00,West,269,11.0,12.0,83,0.00,,,0.00,0,Wunderground v.1.15,2013-01-01 10:54:00,
2013-01-01 05:59:00,33.5,28.9,30.00,WNW,282,10.0,12.0,83,0.00,,,0.00,0,Wunderground v.1.15,2013-01-01 10:59:00,
2013-01-01 06:05:00,33.5,28.9,30.00,WSW,250,10.0,12.0,83,0.00,,,0.00,0,Wunderground v.1.15,2013-01-01 11:05:00,
2013-01-01 06:10:00,33.5,28.9,30.00,West,263,10.0,12.0,83,0.00,,,0.00,0,Wunderground v.1.15,2013-01-01 11:10:00,
2013-01-01 06:16:00,33.5,28.9,30.00,WNW,296,10.0,20.0,83,0.00,,,0.00,0,Wunderground v.1.15,2013-01-01 11:16:00,
2013-01-01 06:21:00,33.7,29.1,30.00,SW,234,10.0,11.0,83,0.00,,,0.00,0,Wunderground v.1.15,2013-01-01 11:21:00,
2013-01-01 06:27:00,33.8,29.2,30.00,SW,230,9.0,12.0,83,0.00,,,0.00,0,Wunderground v.1.15,2013-01-01 11:27:00,
2013-01-01 06:33:00,33.7,29.4,30.00,SW,234,8.0,9.0,84,0.00,,,0.00,0,Wunderground v.1.15,2013-01-01 11:33:00,
2013-01-01 06:38:00,33.5,29.2,30.00,West,273,8.0,10.0,84,0.00,,,0.00,0,Wunderground v.1.15,2013-01-01 11:38:00,
2013-01-01 06:43:00,33.5,29.2,30.00,West,278,8.0,10.0,84,0.00,,,0.00,0,Wunderground v.1.15,2013-01-01 11:43:00,
2013-01-01 06:49:00,33.4,29.1,30.00,West,271,8.0,10.0,84,0.00,,,0.00,0,Wunderground v.1.15,2013-01-01 11:49:00,
2013-01-01 06:54:00,33.6,29.3,30.00,West,269,8.0,15.0,84,0.00,,,0.00,0,Wunderground v.1.15,2013-01-01 11:54:00,
2013-01-01 07:00:00,33.7,29.4,29.99,WNW,293,8.0,8.0,84,0.00,,,0.00,0,Wunderground v.1.15,2013-01-01 12:00:00,
2013-01-01 07:09:00,33.6,29.3,30.00,West,273,6.0,9.0,84,0.00,,,0.00,0,Wunderground v.1.15,2013-01-01 12:09:00,
2013-01-01 07:15:00,33.7,29.4,30.00,SW,234,7.0,10.0,84,0.00,,,0.00,0,Wunderground v.1.15,2013-01-01 12:15:00,
2013-01-01 07:20:00,33.7,29.4,30.00,WSW,247,8.0,8.0,84,0.00,,,0.00,0,Wunderground v.1.15,2013-01-01 12:20:00,
2013-01-01 07:25:00,33.7,29.4,30.00,West,263,9.0,15.0,84,0.00,,,0.00,0,Wunderground v.1.15,2013-01-01 12:25:00,
2013-01-01 07:30:00,33.9,29.6,30.00,WSW,256,10.0,10.0,84,0.00,,,0.00,0,Wunderground v.1.15,2013-01-01 12:30:00,
2013-01-01 07:36:00,33.9,29.6,30.00,WNW,300,8.0,13.0,84,0.00,,,0.00,0,Wunderground v.1.15,2013-01-01 12:36:00,
2013-01-01 07:41:00,33.9,29.6,30.01,WSW,247,6.0,17.0,84,0.00,,,0.00,5,Wunderground v.1.15,2013-01-01 12:41:00,
2013-01-01 07:47:00,33.9,29.6,30.00,WSW,246,6.0,17.0,84,0.00,,,0.00,7,Wunderground v.1.15,2013-01-01 12:47:00,
2013-01-01 07:52:00,34.0,29.7,30.00,WSW,244,7.0,8.0,84,0.00,,,0.00,14,Wunderground v.1.15,2013-01-01 12:52:00,
2013-01-01 07:57:00,34.0,29.7,30.00,North,360,6.0,8.0,84,0.00,,,0.00,16,Wunderground v.1.15,2013-01-01 12:57:00,
2013-01-01 08:03:00,34.0,30.0,30.00,WSW,257,4.0,6.0,85,0.00,,,0.00,23,Wunderground v.1.15,2013-01-01 13:03:00,
2013-01-01 08:09:00,33.9,29.9,30.00,SW,234,5.0,7.0,85,0.00,,,0.00,30,Wunderground v.1.15,2013-01-01 13:09:00,
2013-01-01 08:14:00,34.0,30.0,30.00,SW,220,5.0,9.0,85,0.00,,,0.00,42,Wunderground v.1.15,2013-01-01 13:14:00,
2013-01-01 08:20:00,34.0,30.0,29.99,WSW,248,5.0,5.0,85,0.00,,,0.00,35,Wunderground v.1.15,2013-01-01 13:20:00,
2013-01-01 08:25:00,34.0,30.0,30.00,WSW,252,5.0,6.0,85,0.00,,,0.00,49,Wunderground v.1.15,2013-01-01 13:25:00,
2013-01-01 08:31:00,34.1,30.1,30.00,SW,222,4.0,7.0,85,0.00,,,0.00,69,Wunderground v.1.15,2013-01-01 13:31:00,
2013-01-01 08:37:00,34.2,29.9,30.01,WSW,253,4.0,10.0,84,0.00,,,0.00,56,Wunderground v.1.15,2013-01-01 13:37:00,
2013-01-01 08:42:00,34.3,30.0,30.01,North,360,5.0,11.0,84,0.00,,,0.00,63,Wunderground v.1.15,2013-01-01 13:42:00,
2013-01-01 08:48:00,34.6,30.3,30.00,WNW,288,8.0,15.0,84,0.00,,,0.00,72,Wunderground v.1.15,2013-01-01 13:48:00,
2013-01-01 08:53:00,34.7,30.1,30.01,SW,235,8.0,9.0,83,0.00,,,0.00,76,Wunderground v.1.15,2013-01-01 13:53:00,
2013-01-01 08:59:00,34.9,30.3,30.01,West,263,9.0,18.0,83,0.00,,,0.00,90,Wunderground v.1.15,2013-01-01 13:59:00,
2013-01-01 09:04:00,35.0,30.4,30.02,SW,215,8.0,8.0,83,0.00,,,0.00,104,Wunderground v.1.15,2013-01-01 14:04:00,
2013-01-01 09:10:00,35.1,30.2,30.02,North,360,8.0,10.0,82,0.00,,,0.00,130,Wunderground v.1.15,2013-01-01 14:10:00,
2013-01-01 09:15:00,35.3,30.4,30.01,West,270,11.0,14.0,82,0.00,,,0.00,146,Wunderground v.1.15,2013-01-01 14:15:00,
2013-01-01 09:21:00,35.5,30.2,30.01,SW,233,9.0,9.0,81,0.00,,,0.00,165,Wunderground v.1.15,2013-01-01 14:21:00,
2013-01-01 09:26:00,35.7,30.4,30.01,SW,222,7.0,11.0,81,0.00,,,0.00,172,Wunderground v.1.15,2013-01-01 14:26:00,
2013-01-01 09:32:00,35.9,30.6,30.01,WNW,282,8.0,8.0,81,0.00,,,0.00,185,Wunderground v.1.15,2013-01-01 14:32:00,
2013-01-01 09:37:00,36.1,30.5,30.01,WSW,244,8.0,17.0,80,0.00,,,0.00,171,Wunderground v.1.15,2013-01-01 14:37:00,
2013-01-01 09:42:00,36.0,30.1,30.00,SW,227,11.0,16.0,79,0.00,,,0.00,171,Wunderground v.1.15,2013-01-01 14:42:00,
2013-01-01 09:48:00,36.1,30.5,30.00,WNW,284,10.0,16.0,80,0.00,,,0.00,204,Wunderground v.1.15,2013-01-01 14:48:00,
2013-01-01 09:53:00,36.2,30.6,30.01,West,274,9.0,11.0,80,0.00,,,0.00,218,Wunderground v.1.15,2013-01-01 14:53:00,
2013-01-01 09:59:00,36.3,30.7,30.00,SW,234,10.0,17.0,80,0.00,,,0.00,181,Wunderground v.1.15,2013-01-01 14:59:00,
2013-01-01 10:05:00,36.4,30.5,30.00,WSW,256,10.0,17.0,79,0.00,,,0.00,190,Wunderground v.1.15,2013-01-01 15:05:00,
2013-01-01 10:10:00,36.4,30.8,30.00,West,265,9.0,9.0,80,0.00,,,0.00,149,Wunderground v.1.15,2013-01-01 15:10:00,
2013-01-01 10:15:00,36.3,30.4,30.01,West,269,9.0,11.0,79,0.00,,,0.00,148,Wunderground v.1.15,2013-01-01 15:15:00,
2013-01-01 10:20:00,36.3,30.4,30.01,West,271,10.0,14.0,79,0.00,,,0.00,190,Wunderground v.1.15,2013-01-01 15:20:00,
2013-01-01 10:26:00,36.4,30.5,30.02,WNW,290,11.0,14.0,79,0.00,,,0.00,200,Wunderground v.1.15,2013-01-01 15:26:00,
2013-01-01 10:31:00,36.4,30.5,30.01,WSW,243,11.0,15.0,79,0.00,,,0.00,199,Wunderground v.1.15,2013-01-01 15:31:00,
2013-01-01 10:36:00,36.4,30.5,30.01,SW,233,11.0,19.0,79,0.00,,,0.00,218,Wunderground v.1.15,2013-01-01 15:36:00,
2013-01-01 10:42:00,36.4,30.2,30.00,WSW,257,9.0,10.0,78,0.00,,,0.00,199,Wunderground v.1.15,2013-01-01 15:42:00,
2013-01-01 10:47:00,36.4,30.5,30.01,WSW,257,9.0,10.0,79,0.00,,,0.00,195,Wunderground v.1.15,2013-01-01 15:47:00,
2013-01-01 10:52:00,36.5,30.6,30.01,WSW,247,9.0,9.0,79,0.00,,,0.00,169,Wunderground v.1.15,2013-01-01 15:52:00,
2013-01-01 10:57:00,36.5,30.3,30.02,West,265,7.0,9.0,78,0.00,,,0.00,183,Wunderground v.1.15,2013-01-01 15:57:00,
2013-01-01 11:03:00,36.5,30.3,30.01,NW,309,9.0,15.0,78,0.00,,,0.00,269,Wunderground v.1.15,2013-01-01 16:03:00,
2013-01-01 11:09:00,36.7,30.5,30.00,West,262,10.0,16.0,78,0.00,,,0.00,253,Wunderground v.1.15,2013-01-01 16:09:00,
2013-01-01 11:14:00,36.9,30.7,30.00,West,280,9.0,20.0,78,0.00,,,0.00,281,Wunderground v.1.15,2013-01-01 16:14:00,
2013-01-01 11:20:00,36.8,30.6,30.00,SSW,212,11.0,11.0,78,0.00,,,0.00,243,Wunderground v.1.15,2013-01-01 16:20:00,
2013-01-01 11:25:00,36.8,30.6,30.00,West,276,10.0,14.0,78,0.00,,,0.00,232,Wunderground v.1.15,2013-01-01 16:25:00,
2013-01-01 11:31:00,36.7,30.5,30.00,West,261,9.0,9.0,78,0.00,,,0.00,241,Wunderground v.1.15,2013-01-01 16:31:00,
2013-01-01 11:37:00,36.7,30.5,29.98,SW,232,9.0,14.0,78,0.00,,,0.00,243,Wunderground v.1.15,2013-01-01 16:37:00,
2013-01-01 11:42:00,36.8,30.6,29.98,West,259,10.0,17.0,78,0.00,,,0.00,246,Wunderground v.1.15,2013-01-01 16:42:00,
2013-01-01 11:47:00,36.9,30.7,29.99,WSW,257,8.0,17.0,78,0.00,,,0.00,264,Wunderground v.1.15,2013-01-01 16:47:00,
2013-01-01 11:53:00,37.0,30.5,29.99,North,360,8.0,8.0,77,0.00,,,0.00,357,Wunderground v.1.15,2013-01-01 16:53:00,
2013-01-01 11:59:00,37.6,30.7,29.98,WSW,254,7.0,12.0,76,0.00,,,0.00,621,Wunderground v.1.15,2013-01-01 16:59:00,
2013-01-01 12:04:00,38.3,31.4,29.97,West,269,6.0,10.0,76,0.00,,,0.00,643,Wunderground v.1.15,2013-01-01 17:04:00,
2013-01-01 12:10:00,38.7,31.1,29.97,West,259,6.0,10.0,74,0.00,,,0.00,318,Wunderground v.1.15,2013-01-01 17:10:00,
2013-01-01 12:15:00,38.4,30.5,29.97,West,278,6.0,10.0,73,0.00,,,0.00,248,Wunderground v.1.15,2013-01-01 17:15:00,
2013-01-01 12:20:00,38.2,30.6,29.97,SW,215,7.0,7.0,74,0.00,,,0.00,241,Wunderground v.1.15,2013-01-01 17:20:00,
2013-01-01 12:26:00,37.9,30.7,29.96,NW,320,8.0,14.0,75,0.00,,,0.00,264,Wunderground v.1.15,2013-01-01 17:26:00,
2013-01-01 12:31:00,37.7,30.8,29.96,West,260,9.0,23.0,76,0.00,,,0.00,255,Wunderground v.1.15,2013-01-01 17:31:00,
2013-01-01 12:37:00,37.5,30.6,29.96,North,360,10.0,23.0,76,0.00,,,0.00,383,Wunderground v.1.15,2013-01-01 17:37:00,
2013-01-01 12:42:00,37.6,31.0,29.96,WSW,240,11.0,12.0,77,0.00,,,0.00,403,Wunderground v.1.15,2013-01-01 17:42:00,
2013-01-01 12:47:00,37.6,30.4,29.94,SW,232,12.0,24.0,75,0.00,,,0.00,323,Wunderground v.1.15,2013-01-01 17:47:00,
2013-01-01 12:53:00,37.9,31.0,29.95,SW,215,11.0,16.0,76,0.00,,,0.00,485,Wunderground v.1.15,2013-01-01 17:53:00,
2013-01-01 12:58:00,38.1,31.2,29.95,SW,222,9.0,16.0,76,0.00,,,0.00,220,Wunderground v.1.15,2013-01-01 17:58:00,
2013-01-01 13:04:00,38.1,30.9,29.95,WNW,284,8.0,14.0,75,0.00,,,0.00,207,Wunderground v.1.15,2013-01-01 18:04:00,
2013-01-01 13:09:00,37.8,30.9,29.95,West,273,8.0,14.0,76,0.00,,,0.00,257,Wunderground v.1.15,2013-01-01 18:09:00,
2013-01-01 13:14:00,37.8,30.9,29.95,WSW,249,8.0,9.0,76,0.00,,,0.00,244,Wunderground v.1.15,2013-01-01 18:14:00,
2013-01-01 13:19:00,37.8,30.6,29.95,South,190,7.0,12.0,75,0.00,,,0.00,246,Wunderground v.1.15,2013-01-01 18:19:00,
2013-01-01 13:25:00,37.6,31.0,29.96,WSW,248,7.0,13.0,77,0.00,,,0.00,202,Wunderground v.1.15,2013-01-01 18:25:00,
2013-01-01 13:30:00,37.5,30.9,29.96,SW,221,8.0,15.0,77,0.00,,,0.00,139,Wunderground v.1.15,2013-01-01 18:30:00,
2013-01-01 13:35:00,37.2,31.0,29.96,WSW,246,9.0,15.0,78,0.00,,,0.00,200,Wunderground v.1.15,2013-01-01 18:35:00,
2013-01-01 13:40:00,37.1,30.9,29.96,North,360,10.0,10.0,78,0.00,,,0.00,190,Wunderground v.1.15,2013-01-01 18:40:00,
2013-01-01 13:46:00,37.0,31.1,29.96,WSW,250,8.0,12.0,79,0.00,,,0.00,156,Wunderground v.1.15,2013-01-01 18:46:00,
2013-01-01 13:51:00,36.9,31.0,29.95,West,269,6.0,9.0,79,0.00,,,0.00,88,Wunderground v.1.15,2013-01-01 18:51:00,
2013-01-01 13:57:00,36.4,30.8,29.96,WNW,297,9.0,15.0,80,0.00,,,0.00,93,Wunderground v.1.15,2013-01-01 18:57:00,
2013-01-01 14:02:00,36.3,31.0,29.95,WNW,297,7.0,9.0,81,0.00,,,0.00,116,Wunderground v.1.15,2013-01-01 19:02:00,
2013-01-01 14:07:00,36.2,30.6,29.96,WSW,257,5.0,10.0,80,0.00,,,0.00,125,Wunderground v.1.15,2013-01-01 19:07:00,
2013-01-01 14:13:00,36.0,30.7,29.95,North,360,7.0,9.0,81,0.00,,,0.00,156,Wunderground v.1.15,2013-01-01 19:13:00,
2013-01-01 14:18:00,36.0,30.7,29.95,North,360,8.0,16.0,81,0.00,,,0.00,162,Wunderground v.1.15,2013-01-01 19:18:00,
2013-01-01 14:23:00,35.9,30.6,29.96,SSW,209,11.0,12.0,81,0.00,,,0.00,84,Wunderground v.1.15,2013-01-01 19:23:00,
2013-01-01 14:29:00,35.9,30.6,29.97,West,269,5.0,12.0,81,0.00,,,0.00,77,Wunderground v.1.15,2013-01-01 19:29:00,
2013-01-01 14:35:00,35.8,30.8,29.95,WSW,257,4.0,10.0,82,0.00,,,0.00,91,Wunderground v.1.15,2013-01-01 19:35:00,
2013-01-01 14:41:00,35.8,30.8,29.95,WSW,250,4.0,9.0,82,0.00,,,0.00,74,Wunderground v.1.15,2013-01-01 19:41:00,
2013-01-01 14:46:00,35.6,30.6,29.96,North,360,5.0,13.0,82,0.00,,,0.00,86,Wunderground v.1.15,2013-01-01 19:46:00,
2013-01-01 14:52:00,35.4,30.8,29.96,NNW,329,7.0,15.0,83,0.00,,,0.00,97,Wunderground v.1.15,2013-01-01 19:52:00,
2013-01-01 14:57:00,35.2,30.6,29.96,SW,218,6.0,15.0,83,0.00,,,0.00,90,Wunderground v.1.15,2013-01-01 19:57:00,
2013-01-01 15:03:00,35.2,30.6,29.95,WSW,238,3.0,5.0,83,0.00,,,0.00,79,Wunderground v.1.15,2013-01-01 20:03:00,
2013-01-01 15:09:00,35.2,30.6,29.95,North,360,3.0,5.0,83,0.00,,,0.00,65,Wunderground v.1.15,2013-01-01 20:09:00,
2013-01-01 15:14:00,35.1,30.8,29.96,NW,313,4.0,9.0,84,0.00,,,0.00,49,Wunderground v.1.15,2013-01-01 20:14:00,
2013-01-01 15:19:00,35.0,30.7,29.97,WSW,241,5.0,9.0,84,0.00,,,0.00,39,Wunderground v.1.15,2013-01-01 20:19:00,
2013-01-01 15:24:00,34.9,30.8,29.98,WSW,255,6.0,11.0,85,0.00,,,0.00,35,Wunderground v.1.15,2013-01-01 20:24:00,
2013-01-01 15:30:00,34.7,30.7,29.98,North,360,7.0,7.0,85,0.00,,,0.00,37,Wunderground v.1.15,2013-01-01 20:30:00,
2013-01-01 15:35:00,34.6,30.6,29.97,North,360,5.0,7.0,85,0.00,,,0.00,33,Wunderground v.1.15,2013-01-01 20:35:00,
2013-01-01 15:40:00,34.5,30.5,29.97,SW,236,2.0,2.0,85,0.00,,,0.00,28,Wunderground v.1.15,2013-01-01 20:40:00,
2013-01-01 15:46:00,34.5,30.7,29.99,SW,227,5.0,11.0,86,0.00,,,0.00,21,Wunderground v.1.15,2013-01-01 20:46:00,
2013-01-01 15:51:00,34.4,30.6,29.98,WSW,257,5.0,5.0,86,0.00,,,0.00,21,Wunderground v.1.15,2013-01-01 20:51:00,
2013-01-01 15:56:00,34.3,30.5,29.98,West,270,4.0,8.0,86,0.00,,,0.00,21,Wunderground v.1.15,2013-01-01 20:56:00,
2013-01-01 16:02:00,34.2,30.7,29.99,West,279,6.0,6.0,87,0.00,,,0.00,19,Wunderground v.1.15,2013-01-01 21:02:00,
2013-01-01 16:07:00,34.2,30.4,29.99,West,269,3.0,6.0,86,0.00,,,0.00,16,Wunderground v.1.15,2013-01-01 21:07:00,
2013-01-01 16:13:00,34.1,30.6,29.98,NNW,336,1.0,10.0,87,0.00,,,0.00,19,Wunderground v.1.15,2013-01-01 21:13:00,
2013-01-01 16:18:00,34.1,30.4,29.98,SE,146,3.0,10.0,86,0.00,,,0.00,14,Wunderground v.1.15,2013-01-01 21:18:00,
2013-01-01 16:24:00,34.0,30.5,29.99,SW,219,3.0,4.0,87,0.00,,,0.00,12,Wunderground v.1.15,2013-01-01 21:24:00,
2013-01-01 16:29:00,33.9,30.4,29.99,WSW,244,3.0,8.0,87,0.00,,,0.00,11,Wunderground v.1.15,2013-01-01 21:29:00,
2013-01-01 16:34:00,33.9,30.4,29.99,WSW,250,3.0,3.0,87,0.00,,,0.00,9,Wunderground v.1.15,2013-01-01 21:34:00,
2013-01-01 16:39:00,33.8,30.3,30.00,North,360,4.0,8.0,87,0.00,,,0.00,5,Wunderground v.1.15,2013-01-01 21:39:00,
2013-01-01 16:45:00,33.8,30.3,29.99,WSW,258,6.0,14.0,87,0.00,,,0.00,5,Wunderground v.1.15,2013-01-01 21:45:00,
2013-01-01 16:50:00,33.8,30.3,29.99,West,272,5.0,5.0,87,0.00,,,0.00,0,Wunderground v.1.15,2013-01-01 21:50:00,
2013-01-01 16:56:00,33.7,30.2,29.99,WNW,293,4.0,15.0,87,0.00,,,0.00,0,Wunderground v.1.15,2013-01-01 21:56:00,
2013-01-01 17:02:00,33.7,30.2,30.00,West,279,5.0,8.0,87,0.00,,,0.00,0,Wunderground v.1.15,2013-01-01 22:02:00,
2013-01-01 17:07:00,33.7,30.2,30.00,WNW,286,5.0,13.0,87,0.00,,,0.00,0,Wunderground v.1.15,2013-01-01 22:07:00,
2013-01-01 17:12:00,33.6,30.1,30.00,West,263,5.0,6.0,87,0.00,,,0.00,0,Wunderground v.1.15,2013-01-01 22:12:00,
2013-01-01 17:17:00,33.6,30.1,30.00,West,260,4.0,9.0,87,0.00,,,0.00,0,Wunderground v.1.15,2013-01-01 22:17:00,
2013-01-01 17:23:00,33.6,29.9,30.00,WNW,300,4.0,5.0,86,0.00,,,0.00,0,Wunderground v.1.15,2013-01-01 22:23:00,
2013-01-01 17:28:00,33.6,29.9,30.01,NNW,327,4.0,13.0,86,0.00,,,0.00,0,Wunderground v.1.15,2013-01-01 22:28:00,
2013-01-01 17:34:00,33.6,29.9,30.01,NW,325,5.0,5.0,86,0.00,,,0.00,0,Wunderground v.1.15,2013-01-01 22:34:00,
2013-01-01 17:39:00,33.6,29.9,30.01,WNW,284,4.0,12.0,86,0.00,,,0.00,0,Wunderground v.1.15,2013-01-01 22:39:00,
2013-01-01 17:45:00,33.6,29.9,30.01,WNW,300,5.0,6.0,86,0.00,,,0.00,0,Wunderground v.1.15,2013-01-01 22:45:00,
2013-01-01 17:50:00,33.5,29.8,30.02,North,360,4.0,10.0,86,0.00,,,0.00,0,Wunderground v.1.15,2013-01-01 22:50:00,
2013-01-01 17:55:00,33.4,29.9,30.01,WSW,252,7.0,15.0,87,0.00,,,0.00,0,Wunderground v.1.15,2013-01-01 22:55:00,
2013-01-01 18:00:00,33.3,30.1,30.01,NW,311,8.0,8.0,88,0.00,,,0.00,0,Wunderground v.1.15,2013-01-01 23:00:00,
2013-01-01 18:06:00,33.2,29.8,30.02,SW,229,6.0,10.0,87,0.00,,,0.00,0,Wunderground v.1.15,2013-01-01 23:06:00,
2013-01-01 18:11:00,33.2,29.8,30.01,SSW,209,6.0,6.0,87,0.00,,,0.00,0,Wunderground v.1.15,2013-01-01 23:11:00,
2013-01-01 18:17:00,33.2,29.8,30.01,WNW,298,3.0,7.0,87,0.00,,,0.00,0,Wunderground v.1.15,2013-01-01 23:17:00,
2013-01-01 18:22:00,33.1,29.9,30.01,WNW,299,2.0,2.0,88,0.00,,,0.00,0,Wunderground v.1.15,2013-01-01 23:22:00,
2013-01-01 18:28:00,33.1,29.9,30.02,WNW,299,1.0,2.0,88,0.00,,,0.00,0,Wunderground v.1.15,2013-01-01 23:28:00,
2013-01-01 18:33:00,33.1,30.2,30.03,North,360,1.0,3.0,89,0.00,,,0.00,0,Wunderground v.1.15,2013-01-01 23:33:00,
2013-01-01 18:38:00,33.0,29.8,30.02,SSW,198,2.0,8.0,88,0.00,,,0.00,0,Wunderground v.1.15,2013-01-01 23:38:00,
2013-01-01 18:43:00,33.0,30.1,30.03,NW,316,4.0,4.0,89,0.00,,,0.00,0,Wunderground v.1.15,2013-01-01 23:43:00,
2013-01-01 18:49:00,33.0,29.8,30.03,West,278,4.0,11.0,88,0.00,,,0.00,0,Wunderground v.1.15,2013-01-01 23:49:00,
2013-01-01 18:55:00,33.0,29.8,30.03,West,268,6.0,8.0,88,0.00,,,0.00,0,Wunderground v.1.15,2013-01-01 23:55:00,
2013-01-01 19:00:00,33.1,29.9,30.02,South,169,4.0,5.0,88,0.00,,,0.00,0,Wunderground v.1.15,2013-01-02 00:00:00,
2013-01-01 19:06:00,33.0,30.1,30.02,SSW,200,3.0,7.0,89,0.00,,,0.00,0,Wunderground v.1.15,2013-01-02 00:06:00,
2013-01-01 19:11:00,32.9,30.0,30.02,West,276,4.0,4.0,89,0.00,,,0.00,0,Wunderground v.1.15,2013-01-02 00:11:00,
2013-01-01 19:17:00,32.9,29.7,30.02,West,271,3.0,8.0,88,0.00,,,0.00,0,Wunderground v.1.15,2013-01-02 00:17:00,
2013-01-01 19:22:00,32.9,30.0,30.02,South,177,3.0,3.0,89,0.00,,,0.00,0,Wunderground v.1.15,2013-01-02 00:22:00,
2013-01-01 19:27:00,32.8,29.9,30.02,South,176,1.0,3.0,89,0.00,,,0.00,0,Wunderground v.1.15,2013-01-02 00:27:00,
2013-01-01 19:33:00,32.7,30.1,30.02,South,176,1.0,1.0,90,0.00,,,0.00,0,Wunderground v.1.15,2013-01-02 00:33:00,
2013-01-01 19:38:00,32.7,30.4,30.02,South,179,0.0,1.0,91,0.00,,,0.00,0,Wunderground v.1.15,2013-01-02 00:38:00,
2013-01-01 19:44:00,32.5,30.2,30.03,NNW,333,1.0,3.0,91,0.00,,,0.00,0,Wunderground v.1.15,2013-01-02 00:44:00,
2013-01-01 19:49:00,32.5,29.9,30.03,WSW,250,3.0,8.0,90,0.00,,,0.00,0,Wunderground v.1.15,2013-01-02 00:49:00,
2013-01-01 19:55:00,32.5,29.6,30.02,WSW,246,3.0,6.0,89,0.00,,,0.00,0,Wunderground v.1.15,2013-01-02 00:55:00,
2013-01-01 20:00:00,32.5,29.9,30.02,WSW,248,3.0,6.0,90,0.00,,,0.00,0,Wunderground v.1.15,2013-01-02 01:00:00,
2013-01-01 20:06:00,32.5,29.6,30.02,NW,319,4.0,10.0,89,0.00,,,0.00,0,Wunderground v.1.15,2013-01-02 01:06:00,
2013-01-01 20:12:00,32.5,29.6,30.02,SSW,199,3.0,5.0,89,0.00,,,0.00,0,Wunderground v.1.15,2013-01-02 01:12:00,
2013-01-01 20:17:00,32.4,29.8,30.03,North,355,2.0,5.0,90,0.00,,,0.00,0,Wunderground v.1.15,2013-01-02 01:17:00,
2013-01-01 20:22:00,32.4,29.8,30.03,NNE,14,1.0,2.0,90,0.00,,,0.00,0,Wunderground v.1.15,2013-01-02 01:22:00,
2013-01-01 20:28:00,32.3,30.0,30.03,NNE,24,1.0,2.0,91,0.00,,,0.00,0,Wunderground v.1.15,2013-01-02 01:28:00,
2013-01-01 20:33:00,32.2,29.6,30.04,WSW,241,1.0,2.0,90,0.00,,,0.00,0,Wunderground v.1.15,2013-01-02 01:33:00,
2013-01-01 20:39:00,32.2,29.9,30.02,NE,46,2.0,4.0,91,0.00,,,0.00,0,Wunderground v.1.15,2013-01-02 01:39:00,
2013-01-01 20:45:00,32.2,29.6,30.03,South,175,2.0,8.0,90,0.00,,,0.00,0,Wunderground v.1.15,2013-01-02 01:45:00,
2013-01-01 20:50:00,32.2,29.6,30.04,NNW,342,2.0,2.0,90,0.00,,,0.00,0,Wunderground v.1.15,2013-01-02 01:50:00,
2013-01-01 20:56:00,32.3,29.4,30.03,SSW,200,2.0,7.0,89,0.00,,,0.00,0,Wunderground v.1.15,2013-01-02 01:56:00,
2013-01-01 21:01:00,32.4,29.2,30.04,West,261,4.0,4.0,88,0.00,,,0.00,0,Wunderground v.1.15,2013-01-02 02:01:00,
2013-01-01 21:07:00,32.5,29.6,30.03,SSW,207,5.0,5.0,89,0.00,,,0.00,0,Wunderground v.1.15,2013-01-02 02:07:00,
2013-01-01 21:12:00,32.3,29.4,30.03,ENE,73,3.0,5.0,89,0.00,,,0.00,0,Wunderground v.1.15,2013-01-02 02:12:00,
2013-01-01 21:17:00,32.0,29.7,30.04,East,84,3.0,5.0,91,0.00,,,0.00,0,Wunderground v.1.15,2013-01-02 02:17:00,
2013-01-01 21:23:00,31.8,29.5,30.04,East,82,3.0,4.0,91,0.00,,,0.00,0,Wunderground v.1.15,2013-01-02 02:23:00,
2013-01-01 21:28:00,31.8,29.7,30.04,East,84,2.0,4.0,92,0.00,,,0.00,0,Wunderground v.1.15,2013-01-02 02:28:00,
2013-01-01 21:33:00,31.7,29.6,30.04,East,85,2.0,3.0,92,0.00,,,0.00,0,Wunderground v.1.15,2013-01-02 02:33:00,
2013-01-01 21:39:00,31.7,29.4,30.04,East,80,2.0,5.0,91,0.00,,,0.00,0,Wunderground v.1.15,2013-01-02 02:39:00,
2013-01-01 21:44:00,31.6,29.3,30.04,East,81,3.0,6.0,91,0.00,,,0.00,0,Wunderground v.1.15,2013-01-02 02:44:00,
2013-01-01 21:50:00,31.6,29.5,30.04,East,86,3.0,3.0,92,0.00,,,0.00,0,Wunderground v.1.15,2013-01-02 02:50:00,
2013-01-01 21:55:00,31.6,29.0,30.04,East,99,3.0,4.0,90,0.00,,,0.00,0,Wunderground v.1.15,2013-01-02 02:55:00,
2013-01-01 22:00:00,31.5,29.2,30.03,ENE,76,3.0,3.0,91,0.00,,,0.00,0,Wunderground v.1.15,2013-01-02 03:00:00,
2013-01-01 22:06:00,31.5,28.9,30.03,ENE,77,4.0,5.0,90,0.00,,,0.00,0,Wunderground v.1.15,2013-01-02 03:06:00,
2013-01-01 22:12:00,31.6,28.7,30.04,East,94,2.0,2.0,89,0.00,,,0.00,0,Wunderground v.1.15,2013-01-02 03:12:00,
2013-01-01 22:17:00,31.6,28.7,30.04,East,98,2.0,6.0,89,0.00,,,0.00,0,Wunderground v.1.15,2013-01-02 03:17:00,
2013-01-01 22:23:00,31.5,28.6,30.03,East,90,5.0,7.0,89,0.00,,,0.00,0,Wunderground v.1.15,2013-01-02 03:23:00,
2013-01-01 22:28:00,31.5,28.6,30.04,East,90,6.0,7.0,89,0.00,,,0.00,0,Wunderground v.1.15,2013-01-02 03:28:00,
2013-01-01 22:34:00,31.5,28.6,30.04,ENE,68,5.0,5.0,89,0.00,,,0.00,0,Wunderground v.1.15,2013-01-02 03:34:00,
2013-01-01 22:39:00,31.4,28.5,30.04,ENE,67,5.0,7.0,89,0.00,,,0.00,0,Wunderground v.1.15,2013-01-02 03:39:00,
2013-01-01 22:44:00,31.4,28.5,30.04,East,96,5.0,6.0,89,0.00,,,0.00,0,Wunderground v.1.15,2013-01-02 03:44:00,
2013-01-01 22:50:00,31.4,28.5,30.03,East,99,3.0,3.0,89,0.00,,,0.00,0,Wunderground v.1.15,2013-01-02 03:50:00,
2013-01-01 22:55:00,31.5,28.4,30.04,East,101,1.0,3.0,88,0.00,,,0.00,0,Wunderground v.1.15,2013-01-02 03:55:00,
2013-01-01 23:00:00,31.5,28.1,30.03,East,87,1.0,1.0,87,0.00,,,0.00,0,Wunderground v.1.15,2013-01-02 04:00:00,
2013-01-01 23:06:00,31.6,27.9,30.04,East,79,2.0,3.0,86,0.00,,,0.00,0,Wunderground v.1.15,2013-01-02 04:06:00,
2013-01-01 23:11:00,31.7,28.0,30.04,NE,42,1.0,1.0,86,0.00,,,0.00,0,Wunderground v.1.15,2013-01-02 04:11:00,
2013-01-01 23:16:00,31.8,28.1,30.05,ENE,61,1.0,4.0,86,0.00,,,0.00,0,Wunderground v.1.15,2013-01-02 04:16:00,
2013-01-01 23:21:00,31.7,28.3,30.04,East,92,2.0,2.0,87,0.00,,,0.00,0,Wunderground v.1.15,2013-01-02 04:21:00,
2013-01-01 23:27:00,31.7,28.0,30.04,ENE,76,2.0,3.0,86,0.00,,,0.00,0,Wunderground v.1.15,2013-01-02 04:27:00,
2013-01-01 23:32:00,31.7,28.0,30.04,East,84,1.0,2.0,86,0.00,,,0.00,0,Wunderground v.1.15,2013-01-02 04:32:00,
2013-01-01 23:37:00,31.7,27.7,30.04,SSE,147,2.0,3.0,85,0.00,,,0.00,0,Wunderground v.1.15,2013-01-02 04:37:00,
2013-01-01 23:43:00,31.8,27.5,30.05,ENE,69,2.0,4.0,84,0.00,,,0.00,0,Wunderground v.1.15,2013-01-02 04:43:00,
2013-01-01 23:48:00,31.8,27.8,30.04,ENE,69,3.0,7.0,85,0.00,,,0.00,0,Wunderground v.1.15,2013-01-02 04:48:00,
2013-01-01 23:54:00,31.5,27.8,30.04,East,88,5.0,7.0,86,0.00,,,0.00,0,Wunderground v.1.15,2013-01-02 04:54:00,
2013-01-01 23:59:00,31.5,26.3,30.03,West,275,5.0,7.0,81,0.00,,,0.00,0,Wunderground v.1.15,2013-01-02 04:59:00,